TimeCDT,TemperatureF,Dew PointF,Humidity,Sea Level PressureIn,VisibilityMPH,Wind Direction,Wind SpeedMPH,Gust SpeedMPH,PrecipitationIn,Events,Conditions,WindDirDegrees,DateUTC
12:46 AM,75.2,69.8,83,29.97,10.0,SSE,5.8,-,N/A,Thunderstorm,Thunderstorm,160,2013-05-02 05:46:00
12:51 AM,75.9,69.1,79,29.92,10.0,South,5.8,-,N/A,Thunderstorm,Thunderstorm,190,2013-05-02 05:51:00
1:03 AM,73.4,60.8,65,30.03,10.0,WSW,27.6,40.3,N/A,Thunderstorm,Thunderstorm,250,2013-05-02 06:03:00
1:29 AM,64.4,62.6,94,30.07,2.5,NNW,21.9,27.6,0.22,Rain-Thunderstorm,Heavy Thunderstorms and Rain,330,2013-05-02 06:29:00
1:46 AM,64.4,62.6,94,30.10,4.0,NW,24.2,41.4,0.34,Rain-Thunderstorm,Light Thunderstorms and Rain,320,2013-05-02 06:46:00
1:51 AM,64.0,62.1,93,30.05,4.0,NW,26.5,35.7,0.35,Rain-Thunderstorm,Light Thunderstorms and Rain,320,2013-05-02 06:51:00
2:51 AM,64.0,61.0,90,29.98,6.0,NNE,16.1,-,0.16,Rain-Thunderstorm,Thunderstorms and Rain,20,2013-05-02 07:51:00
3:51 AM,64.0,60.1,87,29.91,10.0,ENE,17.3,29.9,0.12,Rain,Light Rain,60,2013-05-02 08:51:00
4:51 AM,70.0,57.0,63,29.81,10.0,SSE,11.5,43.7,0.02,Rain,Light Rain,150,2013-05-02 09:51:00
5:51 AM,64.9,60.1,84,29.80,10.0,East,6.9,-,0.00,,Mostly Cloudy,80,2013-05-02 10:51:00
6:17 AM,64.4,59.0,83,29.93,10.0,NNW,26.5,36.8,N/A,,Mostly Cloudy,330,2013-05-02 11:17:00
6:51 AM,62.1,55.9,80,29.91,10.0,NNW,25.3,35.7,N/A,,Mostly Cloudy,340,2013-05-02 11:51:00
7:51 AM,60.1,54.0,80,29.98,10.0,NNW,17.3,25.3,N/A,,Mostly Cloudy,340,2013-05-02 12:51:00
8:20 AM,60.8,53.6,77,30.04,10.0,NNW,19.6,27.6,N/A,,Mostly Cloudy,340,2013-05-02 13:20:00
8:51 AM,57.9,51.1,78,30.04,10.0,NNW,23.0,35.7,N/A,,Overcast,340,2013-05-02 13:51:00
9:51 AM,55.0,48.0,77,30.12,10.0,NW,18.4,32.2,N/A,,Overcast,320,2013-05-02 14:51:00
10:51 AM,54.0,46.9,77,30.17,10.0,NNW,21.9,33.4,N/A,,Overcast,330,2013-05-02 15:51:00
11:51 AM,53.1,43.0,69,30.20,10.0,NNW,28.8,42.6,N/A,,Mostly Cloudy,340,2013-05-02 16:51:00
12:51 PM,57.0,46.0,67,30.20,10.0,NNW,17.3,26.5,N/A,,Overcast,340,2013-05-02 17:51:00
1:10 PM,57.2,46.4,67,30.24,10.0,NNW,19.6,26.5,N/A,,Overcast,340,2013-05-02 18:10:00
1:51 PM,59.0,46.9,64,30.21,10.0,NNW,25.3,35.7,N/A,,Mostly Cloudy,340,2013-05-02 18:51:00
2:51 PM,61.0,46.9,60,30.19,10.0,NNW,21.9,33.4,N/A,,Mostly Cloudy,340,2013-05-02 19:51:00
3:51 PM,59.0,44.1,58,30.19,10.0,North,20.7,34.5,N/A,,Mostly Cloudy,350,2013-05-02 20:51:00
4:51 PM,57.0,43.0,59,30.19,10.0,NNW,23.0,39.1,N/A,,Mostly Cloudy,340,2013-05-02 21:51:00
5:51 PM,53.1,42.1,66,30.20,10.0,North,25.3,34.5,N/A,,Overcast,350,2013-05-02 22:51:00
6:51 PM,53.1,39.9,61,30.22,10.0,North,24.2,32.2,N/A,,Overcast,360,2013-05-02 23:51:00
7:51 PM,51.1,39.0,63,30.25,10.0,North,24.2,32.2,N/A,,Overcast,350,2013-05-03 00:51:00
8:51 PM,51.1,37.0,59,30.27,10.0,North,23.0,33.4,N/A,,Overcast,360,2013-05-03 01:51:00
9:51 PM,51.1,37.0,59,30.29,10.0,North,16.1,26.5,N/A,,Overcast,360,2013-05-03 02:51:00
10:51 PM,52.0,37.0,57,30.32,10.0,North,20.7,33.4,N/A,,Overcast,350,2013-05-03 03:51:00
11:51 PM,51.1,36.0,56,30.33,10.0,North,16.1,23.0,N/A,,Overcast,360,2013-05-03 04:51:00